TimeEDT,TemperatureF,Dew PointF,Humidity,Sea Level PressureIn,VisibilityMPH,Wind Direction,Wind SpeedMPH,Gust SpeedMPH,PrecipitationIn,Events,Conditions,WindDirDegrees,DateUTC
12:53 AM,37.0,18.0,46,29.94,10.0,NNW,6.9,17.3,N/A,,Mostly Cloudy,340,2013-03-24 04:53:00
1:53 AM,35.1,18.0,50,29.93,10.0,NW,4.6,-,N/A,,Clear,320,2013-03-24 05:53:00
2:53 AM,32.0,18.0,56,29.90,10.0,NNW,3.5,-,N/A,,Clear,330,2013-03-24 06:53:00
3:53 AM,28.0,19.0,69,29.93,10.0,Calm,Calm,-,N/A,,Clear,0,2013-03-24 07:53:00
4:53 AM,26.1,18.0,71,29.94,10.0,Calm,Calm,-,N/A,,Clear,0,2013-03-24 08:53:00
5:53 AM,24.1,19.0,81,29.94,10.0,Calm,Calm,-,N/A,,Clear,0,2013-03-24 09:53:00
6:53 AM,28.0,18.0,66,29.94,10.0,Calm,Calm,-,N/A,,Clear,0,2013-03-24 10:53:00
7:53 AM,30.0,19.9,66,29.96,10.0,NW,3.5,-,N/A,,Clear,320,2013-03-24 11:53:00
8:53 AM,37.0,19.0,48,29.94,10.0,NW,9.2,-,N/A,,Clear,310,2013-03-24 12:53:00
9:53 AM,39.0,18.0,43,29.94,10.0,NNW,11.5,17.3,N/A,,Clear,340,2013-03-24 13:53:00
10:53 AM,41.0,17.1,38,29.90,10.0,NNW,10.4,-,N/A,,Clear,340,2013-03-24 14:53:00
11:53 AM,43.0,18.0,37,29.86,10.0,Variable,5.8,-,N/A,,Clear,0,2013-03-24 15:53:00
12:53 PM,45.0,18.0,34,29.84,10.0,NNE,6.9,-,N/A,,Clear,20,2013-03-24 16:53:00
1:53 PM,46.9,18.0,32,29.79,10.0,NNE,8.1,-,N/A,,Clear,30,2013-03-24 17:53:00
2:53 PM,48.0,18.0,30,29.74,10.0,NNE,4.6,-,N/A,,Clear,20,2013-03-24 18:53:00
3:53 PM,46.9,19.0,33,29.72,10.0,NNE,8.1,-,N/A,,Clear,30,2013-03-24 19:53:00
4:53 PM,46.9,19.0,33,29.70,10.0,NNE,6.9,-,N/A,,Clear,30,2013-03-24 20:53:00
5:53 PM,46.9,19.0,33,29.72,10.0,North,4.6,-,N/A,,Clear,360,2013-03-24 21:53:00
6:53 PM,44.1,21.0,40,29.71,10.0,Calm,Calm,-,N/A,,Clear,0,2013-03-24 22:53:00
7:53 PM,44.1,21.0,40,29.73,10.0,Calm,Calm,-,N/A,,Clear,0,2013-03-24 23:53:00
8:53 PM,43.0,21.0,42,29.73,10.0,Calm,Calm,-,N/A,,Clear,0,2013-03-25 00:53:00
9:53 PM,39.9,24.1,53,29.75,10.0,ESE,3.5,-,N/A,,Clear,120,2013-03-25 01:53:00
10:53 PM,39.0,25.0,57,29.73,10.0,South,3.5,-,N/A,,Clear,170,2013-03-25 02:53:00
11:53 PM,39.0,25.0,57,29.70,10.0,Calm,Calm,-,N/A,,Clear,0,2013-03-25 03:53:00